^^
Your Local Weather - Clay, NY Station Historical Data
Daily Summary for May 5, 2017 Units:  Metric    English   Both
« Previous Day
Next Day »
Daily Weekly Monthly Yearly Custom
  High: Low: Average:
Temperature: 11.4 °C 6.6 °C 8.8 °C
Dew Point: 9.4 °C 5 °C 7.2 °C
Humidity: 93% 82% 89%
Wind Speed: 14.5km/h 1.6km/h 6.3km/h
Wind Gust: 24.1km/h - -
Wind- - East
Pressure: 1013.8 hPa 994.8 hPa -
Precipitation: 25.91 mm    
Historical Graphs
 
 
Tabular Data for May 5, 2017
Time Temperature Dew Point Pressure Wind Wind Speed Wind Gust Humidity Rainfall Rate (Hourly) solar
00:00 8.2 °C 5.6 °C 1013.8 hPa ENE 3.2 km/h 3.2 km/h 84% 0 mm 0 W/m2
00:06 8.2 °C 5.6 °C 1013.8 hPa ENE 1.6 km/h 8 km/h 84% 0 mm 0 W/m2
00:12 8.2 °C 5.6 °C 1013.4 hPa East 3.2 km/h 3.2 km/h 84% 0 mm 0 W/m2
00:18 8.2 °C 5.6 °C 1013.4 hPa ENE 3.2 km/h 4.8 km/h 84% 0 mm 0 W/m2
00:24 8.2 °C 5.7 °C 1013.4 hPa ENE 3.2 km/h 3.2 km/h 84% 0 mm 0 W/m2
00:32 8.2 °C 5.6 °C 1013.4 hPa East 3.2 km/h 6.4 km/h 84% 0 mm 0 W/m2
00:38 8.2 °C 5.5 °C 1013.4 hPa SE 4.8 km/h 8 km/h 83% 0 mm 0 W/m2
00:44 8.2 °C 5.5 °C 1013.4 hPa ENE 3.2 km/h 4.8 km/h 83% 0 mm 0 W/m2
00:50 8.2 °C 5.5 °C 1013.4 hPa ENE 3.2 km/h 3.2 km/h 83% 0 mm 0 W/m2
00:56 8.1 °C 5.6 °C 1013.4 hPa East 3.2 km/h 8 km/h 84% 0 mm 0 W/m2
01:02 7.9 °C 5.4 °C 1013.1 hPa East 3.2 km/h 3.2 km/h 84% 0 mm 0 W/m2
01:08 7.8 °C 5.4 °C 1013.1 hPa ENE 3.2 km/h 4.8 km/h 85% 0 mm 0 W/m2
01:14 7.7 °C 5.5 °C 1013.1 hPa East 1.6 km/h 3.2 km/h 86% 2.79 mm 0 W/m2
01:20 7.6 °C 5.6 °C 1013.1 hPa East 1.6 km/h 3.2 km/h 87% 2.54 mm 0 W/m2
01:26 7.6 °C 5.6 °C 1013.1 hPa East 1.6 km/h 4.8 km/h 87% 1.27 mm 0 W/m2
01:32 7.4 °C 5.4 °C 1013.1 hPa East 1.6 km/h 1.6 km/h 87% 3.3 mm 0 W/m2
01:38 7.3 °C 5.5 °C 1013.1 hPa East 3.2 km/h 4.8 km/h 88% 2.03 mm 0 W/m2
01:44 7.3 °C 5.4 °C 1013.1 hPa NE 3.2 km/h 3.2 km/h 88% 1.52 mm 0 W/m2
01:50 7.2 °C 5.3 °C 1012.8 hPa ENE 1.6 km/h 11.3 km/h 88% 2.29 mm 0 W/m2
01:56 7.1 °C 5.4 °C 1012.8 hPa ESE 1.6 km/h 11.3 km/h 89% 1.78 mm 0 W/m2
02:02 7.1 °C 5.4 °C 1012.4 hPa SE 1.6 km/h 3.2 km/h 89% 2.54 mm 0 W/m2
02:08 7 °C 5.3 °C 1012.4 hPa East 3.2 km/h 3.2 km/h 89% 3.05 mm 0 W/m2
02:14 6.9 °C 5.3 °C 1012.4 hPa ESE 3.2 km/h 8 km/h 89% 3.05 mm 0 W/m2
02:20 6.9 °C 5.3 °C 1012.4 hPa SSE 1.6 km/h 1.6 km/h 89% 2.54 mm 0 W/m2
02:26 6.9 °C 5.2 °C 1012.1 hPa East 1.6 km/h 3.2 km/h 89% 2.54 mm 0 W/m2
02:32 6.8 °C 5.2 °C 1012.1 hPa ESE 3.2 km/h 4.8 km/h 89% 2.54 mm 0 W/m2
02:38 6.8 °C 5.2 °C 1011.7 hPa ENE 3.2 km/h 4.8 km/h 89% 3.05 mm 0 W/m2
02:44 6.8 °C 5.1 °C 1012.1 hPa ENE 1.6 km/h 3.2 km/h 89% 2.29 mm 0 W/m2
02:50 6.7 °C 5.1 °C 1012.1 hPa ENE 1.6 km/h 3.2 km/h 89% 2.54 mm 0 W/m2
02:56 6.7 °C 5 °C 1012.1 hPa ESE 3.2 km/h 4.8 km/h 89% 1.78 mm 0 W/m2
03:02 6.7 °C 5 °C 1012.1 hPa ESE 1.6 km/h 1.6 km/h 89% 3.3 mm 0 W/m2
03:08 6.7 °C 5 °C 1011.4 hPa ENE 1.6 km/h 1.6 km/h 89% 7.62 mm 0 W/m2
03:14 6.6 °C 5.1 °C 1011.4 hPa East 1.6 km/h 1.6 km/h 90% 4.32 mm 0 W/m2
03:20 6.6 °C 5.1 °C 1011.4 hPa East 3.2 km/h 3.2 km/h 90% 2.79 mm 0 W/m2
03:26 6.6 °C 5.1 °C 1011.4 hPa East 3.2 km/h 9.7 km/h 90% 2.79 mm 0 W/m2
03:32 6.6 °C 5.1 °C 1011.1 hPa ESE 3.2 km/h 4.8 km/h 90% 5.33 mm 0 W/m2
03:38 6.6 °C 5.1 °C 1011.1 hPa East 3.2 km/h 4.8 km/h 90% 3.3 mm 0 W/m2
03:44 6.6 °C 5.1 °C 1011.4 hPa East 1.6 km/h 3.2 km/h 90% 2.29 mm 0 W/m2
03:50 6.6 °C 5.1 °C 1011.1 hPa ENE 1.6 km/h 4.8 km/h 90% 2.79 mm 0 W/m2
03:56 6.7 °C 5.3 °C 1011.1 hPa ENE 3.2 km/h 4.8 km/h 91% 3.81 mm 0 W/m2
04:02 6.7 °C 5.3 °C 1010.7 hPa East 3.2 km/h 3.2 km/h 91% 4.06 mm 0 W/m2
04:08 6.8 °C 5.4 °C 1010.7 hPa ENE 1.6 km/h 3.2 km/h 91% 3.56 mm 0 W/m2
04:14 6.8 °C 5.4 °C 1010.7 hPa East 1.6 km/h 8 km/h 91% 1.78 mm 0 W/m2
04:20 6.9 °C 5.6 °C 1010.7 hPa SE 3.2 km/h 3.2 km/h 91% 1.52 mm 0 W/m2
04:26 6.9 °C 5.6 °C 1010.7 hPa ENE 3.2 km/h 4.8 km/h 91% 1.52 mm 0 W/m2
04:32 7 °C 5.6 °C 1010.7 hPa East 3.2 km/h 3.2 km/h 91% 3.05 mm 0 W/m2
04:38 7.1 °C 5.7 °C 1010.4 hPa ENE 3.2 km/h 4.8 km/h 91% 2.03 mm 0 W/m2
04:44 7.1 °C 5.8 °C 1010.4 hPa East 3.2 km/h 3.2 km/h 92% 2.03 mm 0 W/m2
04:50 7.1 °C 5.9 °C 1010 hPa ESE 1.6 km/h 3.2 km/h 92% 1.27 mm 0 W/m2
04:56 7.2 °C 5.9 °C 1010 hPa East 3.2 km/h 6.4 km/h 92% 1.02 mm 0 W/m2
05:02 7.2 °C 6 °C 1009.7 hPa ESE 3.2 km/h 3.2 km/h 92% 1.02 mm 0 W/m2
05:08 7.3 °C 6.1 °C 1009.7 hPa ESE 3.2 km/h 3.2 km/h 92% 1.02 mm 0 W/m2
05:14 7.3 °C 6.1 °C 1009.7 hPa ENE 3.2 km/h 6.4 km/h 92% 1.02 mm 0 W/m2
05:20 7.3 °C 6.1 °C 1009.7 hPa East 3.2 km/h 8 km/h 92% 1.02 mm 0 W/m2
05:26 7.4 °C 6.2 °C 1009.4 hPa East 3.2 km/h 8 km/h 92% 0 mm 0 W/m2
05:32 7.5 °C 6.3 °C 1009.4 hPa East 3.2 km/h 3.2 km/h 92% 0 mm 0 W/m2
05:38 7.6 °C 6.4 °C 1009.4 hPa East 4.8 km/h 4.8 km/h 92% 0 mm 0 W/m2
05:44 7.6 °C 6.4 °C 1009.4 hPa East 4.8 km/h 8 km/h 92% 1.52 mm 0 W/m2
05:50 7.4 °C 6.2 °C 1009.4 hPa ESE 3.2 km/h 4.8 km/h 92% 1.52 mm 0 W/m2
05:56 7.4 °C 6.2 °C 1009 hPa East 3.2 km/h 8 km/h 92% 1.27 mm 0 W/m2
06:00 7.3 °C 6.1 °C 1009.4 hPa ENE 3.2 km/h 3.2 km/h 92% 1.02 mm 0 W/m2
06:06 7.3 °C 6.1 °C 1009 hPa East 1.6 km/h 3.2 km/h 92% 2.54 mm 0 W/m2
06:12 7.4 °C 6.2 °C 1009 hPa ENE 3.2 km/h 8 km/h 92% 2.54 mm 0 W/m2
06:18 7.4 °C 6.2 °C 1009 hPa North 3.2 km/h 8 km/h 92% 1.78 mm 0 W/m2
06:24 7.4 °C 6.2 °C 1008.7 hPa ENE 1.6 km/h 6.4 km/h 92% 2.54 mm 5 W/m2
06:30 7.4 °C 6.2 °C 1008.7 hPa East 3.2 km/h 8 km/h 92% 1.52 mm 7 W/m2
06:36 7.4 °C 6.2 °C 1008.7 hPa East 3.2 km/h 9.7 km/h 92% 1.27 mm 9 W/m2
06:42 7.4 °C 6.2 °C 1008.7 hPa NE 4.8 km/h 6.4 km/h 92% 2.03 mm 9 W/m2
06:48 7.4 °C 6.2 °C 1008.7 hPa ENE 3.2 km/h 16.1 km/h 92% 2.79 mm 7 W/m2
06:54 7.6 °C 6.3 °C 1008.7 hPa ESE 3.2 km/h 3.2 km/h 92% 2.03 mm 11 W/m2
07:00 7.6 °C 6.3 °C 1008.7 hPa SE 3.2 km/h 3.2 km/h 92% 1.52 mm 11 W/m2
07:06 7.6 °C 6.6 °C 1008.7 hPa East 4.8 km/h 6.4 km/h 93% 1.52 mm 14 W/m2
07:12 7.6 °C 6.4 °C 1008.7 hPa ENE 4.8 km/h 4.8 km/h 92% 2.29 mm 16 W/m2
07:18 7.6 °C 6.4 °C 1008.7 hPa ESE 4.8 km/h 4.8 km/h 92% 1.52 mm 18 W/m2
07:24 7.7 °C 6.4 °C 1008.7 hPa ENE 3.2 km/h 8 km/h 92% 1.52 mm 23 W/m2
07:30 7.7 °C 6.4 °C 1008.7 hPa ESE 4.8 km/h 4.8 km/h 92% 1.52 mm 30 W/m2
07:36 7.7 °C 6.4 °C 1008.4 hPa ENE 4.8 km/h 12.9 km/h 92% 2.03 mm 21 W/m2
07:42 7.7 °C 6.5 °C 1008.4 hPa ENE 4.8 km/h 6.4 km/h 92% 2.03 mm 30 W/m2
07:48 7.7 °C 6.5 °C 1008 hPa East 6.4 km/h 8 km/h 92% 1.02 mm 39 W/m2
07:54 7.8 °C 6.6 °C 1008 hPa East 6.4 km/h 11.3 km/h 92% 1.02 mm 28 W/m2
08:00 7.8 °C 6.6 °C 1007.7 hPa ENE 6.4 km/h 11.3 km/h 92% 5.59 mm 26 W/m2
08:06 7.7 °C 6.5 °C 1008 hPa ENE 6.4 km/h 11.3 km/h 92% 3.3 mm 35 W/m2
08:12 7.7 °C 6.4 °C 1007.7 hPa East 6.4 km/h 11.3 km/h 92% 3.05 mm 42 W/m2
08:18 7.6 °C 6.4 °C 1007.7 hPa East 8 km/h 11.3 km/h 92% 2.03 mm 47 W/m2
08:24 7.5 °C 6.3 °C 1007.7 hPa NE 8 km/h 9.7 km/h 92% 1.27 mm 42 W/m2
08:30 7.4 °C 6.2 °C 1007.7 hPa East 8 km/h 11.3 km/h 92% 1.27 mm 54 W/m2
08:36 7.4 °C 6.2 °C 1007.7 hPa ENE 6.4 km/h 11.3 km/h 92% 1.27 mm 72 W/m2
08:42 7.3 °C 6.1 °C 1007.7 hPa ENE 6.4 km/h 6.4 km/h 92% 1.27 mm 54 W/m2
08:48 7.3 °C 6.1 °C 1007.3 hPa SE 6.4 km/h 8 km/h 92% 1.27 mm 40 W/m2
08:54 7.3 °C 6.1 °C 1007.3 hPa NNE 8 km/h 8 km/h 92% 2.79 mm 58 W/m2
09:00 7.3 °C 6.1 °C 1007 hPa ENE 6.4 km/h 6.4 km/h 92% 2.03 mm 49 W/m2
09:06 7.3 °C 6.1 °C 1007 hPa East 6.4 km/h 12.9 km/h 92% 2.03 mm 69 W/m2
09:12 7.3 °C 6.1 °C 1006.7 hPa East 6.4 km/h 8 km/h 92% 1.27 mm 79 W/m2
09:18 7.3 °C 6.1 °C 1006.7 hPa East 8 km/h 8 km/h 92% 1.27 mm 81 W/m2
09:24 7.2 °C 6.2 °C 1006.3 hPa East 8 km/h 8 km/h 93% 1.27 mm 88 W/m2
09:30 7.3 °C 6.1 °C 1006.3 hPa NE 6.4 km/h 6.4 km/h 92% 1.02 mm 91 W/m2
09:36 7.3 °C 6.1 °C 1006.3 hPa ENE 6.4 km/h 6.4 km/h 92% 1.02 mm 77 W/m2
09:42 7.3 °C 6.1 °C 1006 hPa ESE 8 km/h 8 km/h 92% 1.02 mm 93 W/m2
09:48 7.3 °C 6.2 °C 1006 hPa ENE 9.7 km/h 11.3 km/h 93% 0 mm 86 W/m2
09:54 7.3 °C 6.1 °C 1005.6 hPa East 8 km/h 8 km/h 92% 0 mm 97 W/m2
10:00 7.2 °C 6.2 °C 1005.6 hPa ESE 8 km/h 8 km/h 93% 0 mm 98 W/m2
10:06 7.3 °C 6.1 °C 1005.6 hPa NE 8 km/h 9.7 km/h 92% 0 mm 79 W/m2
10:12 7.3 °C 6.1 °C 1005.3 hPa ESE 6.4 km/h 19.3 km/h 92% 1.02 mm 88 W/m2
10:18 7.4 °C 6.2 °C 1005.3 hPa ESE 8 km/h 19.3 km/h 92% 1.02 mm 81 W/m2
10:24 7.4 °C 6.2 °C 1005 hPa NE 6.4 km/h 8 km/h 92% 1.02 mm 84 W/m2
10:30 7.5 °C 6.4 °C 1005 hPa ENE 6.4 km/h 14.5 km/h 93% 1.02 mm 118 W/m2
10:36 7.6 °C 6.5 °C 1005 hPa East 6.4 km/h 14.5 km/h 93% 1.02 mm 130 W/m2
10:42 7.6 °C 6.5 °C 1004.6 hPa SSE 8 km/h 8 km/h 93% 0 mm 130 W/m2
10:48 7.6 °C 6.4 °C 1004.6 hPa SE 8 km/h 12.9 km/h 92% 0 mm 142 W/m2
10:54 7.7 °C 6.6 °C 1004.6 hPa East 8 km/h 14.5 km/h 93% 0 mm 158 W/m2
11:00 7.8 °C 6.6 °C 1004.6 hPa ENE 8 km/h 11.3 km/h 92% 0 mm 169 W/m2
11:06 7.8 °C 6.8 °C 1004.6 hPa ENE 9.7 km/h 16.1 km/h 93% 0 mm 158 W/m2
11:12 7.8 °C 6.6 °C 1004.3 hPa ESE 9.7 km/h 20.9 km/h 92% 0 mm 132 W/m2
11:18 7.8 °C 6.8 °C 1004.3 hPa ESE 9.7 km/h 20.9 km/h 93% 0 mm 132 W/m2
11:24 7.9 °C 6.7 °C 1004.3 hPa East 8 km/h 17.7 km/h 92% 0 mm 105 W/m2
11:30 7.9 °C 6.7 °C 1004.3 hPa SE 6.4 km/h 9.7 km/h 92% 1.02 mm 81 W/m2
11:36 7.9 °C 6.8 °C 1004.3 hPa East 8 km/h 9.7 km/h 93% 2.54 mm 72 W/m2
11:42 7.9 °C 6.9 °C 1003.9 hPa NNE 8 km/h 8 km/h 93% 4.57 mm 76 W/m2
11:48 7.9 °C 6.9 °C 1003.9 hPa ESE 6.4 km/h 8 km/h 93% 3.56 mm 76 W/m2
11:54 8 °C 6.9 °C 1003.9 hPa NE 6.4 km/h 11.3 km/h 93% 2.54 mm 83 W/m2
12:00 7.9 °C 6.9 °C 1003.9 hPa ENE 9.7 km/h 9.7 km/h 93% 3.56 mm 79 W/m2
12:06 8.1 °C 7 °C 1003.9 hPa ENE 8 km/h 9.7 km/h 93% 3.05 mm 67 W/m2
12:12 8.1 °C 7.1 °C 1003.6 hPa ENE 6.4 km/h 6.4 km/h 93% 3.81 mm 72 W/m2
12:18 8.1 °C 7.1 °C 1003.6 hPa ESE 6.4 km/h 11.3 km/h 93% 2.79 mm 79 W/m2
12:24 8.2 °C 7.1 °C 1003.3 hPa North 8 km/h 8 km/h 93% 3.05 mm 88 W/m2
12:30 8.2 °C 7.1 °C 1002.9 hPa NNE 8 km/h 11.3 km/h 93% 2.03 mm 93 W/m2
12:36 8.2 °C 7.1 °C 1002.3 hPa ENE 9.7 km/h 16.1 km/h 93% 1.78 mm 91 W/m2
12:42 8.2 °C 7.2 °C 1002.6 hPa ENE 9.7 km/h 11.3 km/h 93% 1.52 mm 76 W/m2
12:48 8.3 °C 7.2 °C 1002.6 hPa SSE 6.4 km/h 11.3 km/h 93% 1.52 mm 79 W/m2
12:54 8.3 °C 7.3 °C 1002.9 hPa ESE 6.4 km/h 8 km/h 93% 4.57 mm 74 W/m2
13:00 8.3 °C 7.2 °C 1002.6 hPa ENE 8 km/h 8 km/h 93% 7.87 mm 79 W/m2
13:06 8.3 °C 7.3 °C 1001.9 hPa ENE 9.7 km/h 9.7 km/h 93% 9.65 mm 76 W/m2
13:12 8.4 °C 7.3 °C 1002.3 hPa ENE 8 km/h 8 km/h 93% 3.81 mm 97 W/m2
13:18 8.4 °C 7.3 °C 1001.6 hPa NE 9.7 km/h 24.1 km/h 93% 1.78 mm 120 W/m2
13:24 8.4 °C 7.4 °C 1001.2 hPa East 9.7 km/h 11.3 km/h 93% 1.78 mm 146 W/m2
13:30 8.6 °C 7.5 °C 1000.9 hPa East 11.3 km/h 11.3 km/h 93% 1.78 mm 190 W/m2
13:36 8.7 °C 7.6 °C 1000.2 hPa East 12.9 km/h 16.1 km/h 93% 1.78 mm 220 W/m2
13:42 8.8 °C 7.7 °C 999.9 hPa SE 12.9 km/h 20.9 km/h 93% 1.02 mm 192 W/m2
13:48 8.8 °C 7.6 °C 999.5 hPa ENE 14.5 km/h 20.9 km/h 92% 0 mm 181 W/m2
13:54 8.8 °C 7.6 °C 999.9 hPa ENE 12.9 km/h 14.5 km/h 92% 0 mm 125 W/m2
14:00 8.9 °C 7.7 °C 999.9 hPa NNW 11.3 km/h 11.3 km/h 92% 0 mm 156 W/m2
14:06 9.1 °C 7.8 °C 999.9 hPa North 11.3 km/h 20.9 km/h 92% 0 mm 218 W/m2
14:12 9.2 °C 7.8 °C 1000.2 hPa East 11.3 km/h 12.9 km/h 91% 0 mm 127 W/m2
14:18 9.2 °C 7.8 °C 1000.2 hPa ENE 9.7 km/h 12.9 km/h 91% 0 mm 148 W/m2
14:24 9.3 °C 7.7 °C 1000.2 hPa East 9.7 km/h 20.9 km/h 90% 0 mm 214 W/m2
14:30 9.5 °C 7.9 °C 1000.2 hPa ENE 11.3 km/h 11.3 km/h 90% 0 mm 213 W/m2
14:36 9.6 °C 7.9 °C 1000.2 hPa ESE 9.7 km/h 12.9 km/h 89% 0 mm 160 W/m2
14:42 9.7 °C 7.9 °C 1000.2 hPa East 8 km/h 14.5 km/h 89% 0 mm 97 W/m2
14:48 9.7 °C 7.8 °C 1000.2 hPa NE 8 km/h 16.1 km/h 88% 0 mm 114 W/m2
14:54 9.7 °C 7.8 °C 1000.2 hPa ENE 9.7 km/h 11.3 km/h 88% 0 mm 100 W/m2
15:00 9.8 °C 7.9 °C 999.9 hPa East 8 km/h 9.7 km/h 88% 0 mm 116 W/m2
15:06 9.9 °C 8.1 °C 999.9 hPa ESE 6.4 km/h 12.9 km/h 88% 0 mm 113 W/m2
15:12 10.1 °C 8.2 °C 999.9 hPa ENE 6.4 km/h 8 km/h 88% 0 mm 132 W/m2
15:18 10.2 °C 8.1 °C 999.5 hPa East 8 km/h 19.3 km/h 87% 0 mm 120 W/m2
15:24 10.3 °C 8.3 °C 999.5 hPa SSE 6.4 km/h 8 km/h 87% 0 mm 88 W/m2
15:30 10.3 °C 8.1 °C 999.5 hPa East 4.8 km/h 11.3 km/h 86% 0 mm 70 W/m2
15:36 10.3 °C 8.1 °C 999.2 hPa ENE 6.4 km/h 11.3 km/h 86% 0 mm 79 W/m2
15:42 10.3 °C 8.1 °C 999.2 hPa East 6.4 km/h 8 km/h 86% 0 mm 84 W/m2
15:48 10.4 °C 8.2 °C 999.2 hPa NE 8 km/h 8 km/h 86% 0 mm 121 W/m2
15:54 10.4 °C 8.1 °C 998.9 hPa ESE 9.7 km/h 14.5 km/h 85% 0 mm 93 W/m2
16:00 10.5 °C 8.1 °C 998.9 hPa NE 8 km/h 8 km/h 85% 0 mm 153 W/m2
16:06 10.6 °C 8.1 °C 998.5 hPa East 8 km/h 8 km/h 85% 0 mm 105 W/m2
16:12 10.7 °C 8.2 °C 998.5 hPa East 9.7 km/h 12.9 km/h 85% 0 mm 135 W/m2
16:18 10.8 °C 8.3 °C 998.2 hPa ESE 9.7 km/h 14.5 km/h 85% 0 mm 93 W/m2
16:24 10.8 °C 8.2 °C 998.2 hPa NE 9.7 km/h 14.5 km/h 84% 0 mm 134 W/m2
16:30 10.9 °C 8.3 °C 998.2 hPa East 9.7 km/h 9.7 km/h 84% 0 mm 174 W/m2
16:36 11.1 °C 8.5 °C 998.2 hPa East 9.7 km/h 12.9 km/h 84% 0 mm 116 W/m2
16:42 11.3 °C 8.7 °C 998.2 hPa ESE 8 km/h 11.3 km/h 84% 0 mm 98 W/m2
16:48 11.4 °C 8.4 °C 998.5 hPa ENE 8 km/h 14.5 km/h 82% 0 mm 58 W/m2
16:54 11.4 °C 8.7 °C 998.2 hPa ENE 8 km/h 8 km/h 83% 0 mm 54 W/m2
17:00 11.3 °C 8.6 °C 998.2 hPa NE 6.4 km/h 6.4 km/h 83% 0 mm 67 W/m2
17:06 11.3 °C 8.5 °C 998.2 hPa ENE 8 km/h 16.1 km/h 83% 0 mm 53 W/m2
17:12 11.2 °C 8.4 °C 998.2 hPa East 8 km/h 8 km/h 83% 0 mm 37 W/m2
17:18 11.2 °C 8.4 °C 998.2 hPa NE 6.4 km/h 14.5 km/h 83% 0 mm 42 W/m2
17:24 11.1 °C 8.3 °C 998.2 hPa East 8 km/h 11.3 km/h 83% 0 mm 51 W/m2
17:30 11.1 °C 8.3 °C 998.2 hPa ENE 8 km/h 12.9 km/h 83% 0 mm 63 W/m2
17:36 11.1 °C 8.3 °C 998.2 hPa ENE 8 km/h 16.1 km/h 83% 0 mm 79 W/m2
17:44 11.1 °C 8.4 °C 998.2 hPa ENE 6.4 km/h 11.3 km/h 84% 0 mm 37 W/m2
17:50 10.9 °C 8.3 °C 997.9 hPa ESE 4.8 km/h 4.8 km/h 84% 0 mm 46 W/m2
17:56 10.9 °C 8.3 °C 997.9 hPa ENE 4.8 km/h 8 km/h 84% 0 mm 49 W/m2
18:02 10.9 °C 8.3 °C 997.5 hPa East 6.4 km/h 11.3 km/h 84% 0 mm 44 W/m2
18:08 10.8 °C 8.2 °C 997.9 hPa ENE 8 km/h 11.3 km/h 84% 0 mm 35 W/m2
18:14 10.8 °C 8.2 °C 997.9 hPa NE 8 km/h 11.3 km/h 84% 0 mm 23 W/m2
18:20 10.8 °C 8.3 °C 997.9 hPa ESE 8 km/h 11.3 km/h 85% 0 mm 12 W/m2
18:26 10.8 °C 8.3 °C 997.5 hPa East 8 km/h 11.3 km/h 85% 0 mm 19 W/m2
18:32 10.8 °C 8.3 °C 997.5 hPa ENE 6.4 km/h 16.1 km/h 85% 0 mm 18 W/m2
18:38 10.8 °C 8.3 °C 997.5 hPa ESE 8 km/h 16.1 km/h 85% 0 mm 16 W/m2
18:44 10.7 °C 8.3 °C 997.5 hPa East 6.4 km/h 11.3 km/h 85% 0 mm 18 W/m2
18:50 10.8 °C 8.3 °C 997.5 hPa East 8 km/h 8 km/h 85% 0 mm 18 W/m2
18:56 10.7 °C 8.3 °C 997.5 hPa ESE 8 km/h 11.3 km/h 85% 0 mm 16 W/m2
19:02 10.7 °C 8.2 °C 997.2 hPa ESE 8 km/h 11.3 km/h 85% 0 mm 19 W/m2
19:08 10.7 °C 8.3 °C 997.2 hPa East 6.4 km/h 11.3 km/h 85% 0 mm 19 W/m2
19:14 10.8 °C 8.3 °C 997.2 hPa East 6.4 km/h 11.3 km/h 85% 0 mm 18 W/m2
19:20 10.8 °C 8.3 °C 997.5 hPa ENE 8 km/h 8 km/h 85% 0 mm 14 W/m2
19:26 10.8 °C 8.3 °C 997.2 hPa ENE 8 km/h 8 km/h 85% 0 mm 14 W/m2
19:32 10.8 °C 8.3 °C 997.2 hPa East 8 km/h 8 km/h 85% 0 mm 12 W/m2
19:38 10.8 °C 8.3 °C 997.2 hPa ENE 8 km/h 12.9 km/h 85% 0 mm 7 W/m2
19:44 10.8 °C 8.6 °C 997.2 hPa NE 8 km/h 12.9 km/h 86% 0 mm 9 W/m2
19:50 10.8 °C 8.6 °C 997.2 hPa NE 8 km/h 8 km/h 86% 0 mm 5 W/m2
19:56 10.7 °C 8.6 °C 997.2 hPa ESE 6.4 km/h 9.7 km/h 87% 0 mm 0 W/m2
20:02 10.6 °C 8.7 °C 997.2 hPa ENE 6.4 km/h 8 km/h 88% 0 mm 0 W/m2
20:08 10.4 °C 8.6 °C 997.2 hPa ENE 6.4 km/h 9.7 km/h 88% 0 mm 0 W/m2
20:14 10.3 °C 8.6 °C 997.2 hPa East 8 km/h 9.7 km/h 89% 0 mm 0 W/m2
20:20 10.3 °C 8.7 °C 997.2 hPa ENE 6.4 km/h 6.4 km/h 90% 0 mm 0 W/m2
20:26 10.2 °C 8.7 °C 997.2 hPa SE 4.8 km/h 6.4 km/h 90% 0 mm 0 W/m2
20:32 10.2 °C 8.8 °C 997.2 hPa ENE 6.4 km/h 6.4 km/h 91% 0 mm 0 W/m2
20:38 10.3 °C 8.9 °C 997.2 hPa East 8 km/h 12.9 km/h 91% 0 mm 0 W/m2
20:44 10.3 °C 8.9 °C 997.2 hPa NNE 8 km/h 8 km/h 91% 0 mm 0 W/m2
20:50 10.3 °C 8.9 °C 997.2 hPa East 6.4 km/h 6.4 km/h 91% 0 mm 0 W/m2
20:56 10.4 °C 9 °C 997.2 hPa ESE 8 km/h 12.9 km/h 91% 0 mm 0 W/m2
21:02 10.4 °C 9 °C 996.5 hPa NE 8 km/h 8 km/h 91% 0 mm 0 W/m2
21:08 10.4 °C 9.1 °C 996.5 hPa ENE 6.4 km/h 8 km/h 91% 0 mm 0 W/m2
21:14 10.4 °C 9.1 °C 996.5 hPa East 6.4 km/h 8 km/h 91% 0 mm 0 W/m2
21:20 10.4 °C 9.1 °C 996.5 hPa ESE 6.4 km/h 6.4 km/h 91% 0 mm 0 W/m2
21:26 10.5 °C 9.1 °C 996.5 hPa East 6.4 km/h 6.4 km/h 91% 0 mm 0 W/m2
21:32 10.6 °C 9 °C 996.5 hPa ENE 6.4 km/h 6.4 km/h 90% 0 mm 0 W/m2
21:38 10.7 °C 9.1 °C 996.5 hPa ENE 6.4 km/h 8 km/h 90% 0 mm 0 W/m2
21:44 10.7 °C 9.1 °C 996.5 hPa ENE 6.4 km/h 9.7 km/h 90% 0 mm 0 W/m2
21:50 10.7 °C 9.2 °C 996.2 hPa ENE 6.4 km/h 6.4 km/h 90% 0 mm 0 W/m2
21:56 10.7 °C 9.2 °C 996.2 hPa ESE 8 km/h 8 km/h 90% 0 mm 0 W/m2
22:02 10.8 °C 9.2 °C 996.2 hPa East 6.4 km/h 11.3 km/h 90% 0 mm 0 W/m2
22:08 10.8 °C 9.2 °C 996.2 hPa ESE 8 km/h 11.3 km/h 90% 0 mm 0 W/m2
22:14 10.8 °C 9.3 °C 995.8 hPa ENE 6.4 km/h 8 km/h 90% 0 mm 0 W/m2
22:20 10.8 °C 9.3 °C 995.8 hPa ENE 8 km/h 12.9 km/h 90% 0 mm 0 W/m2
22:26 10.9 °C 9.3 °C 995.8 hPa NE 6.4 km/h 12.9 km/h 90% 0 mm 0 W/m2
22:32 10.9 °C 9.4 °C 995.8 hPa NE 8 km/h 8 km/h 90% 0 mm 0 W/m2
22:38 11 °C 9.3 °C 995.5 hPa NE 8 km/h 8 km/h 89% 0 mm 0 W/m2
22:44 11.1 °C 9.3 °C 995.5 hPa ESE 6.4 km/h 6.4 km/h 89% 0 mm 0 W/m2
22:50 11.1 °C 9.3 °C 995.5 hPa East 6.4 km/h 9.7 km/h 89% 0 mm 0 W/m2
22:56 11.1 °C 9.4 °C 995.5 hPa ENE 6.4 km/h 9.7 km/h 89% 0 mm 0 W/m2
23:02 11.1 °C 9.4 °C 995.5 hPa ENE 6.4 km/h 8 km/h 89% 0 mm 0 W/m2
23:08 11.1 °C 9.4 °C 995.5 hPa ESE 8 km/h 9.7 km/h 89% 0 mm 0 W/m2
23:14 11.2 °C 9.4 °C 995.5 hPa East 8 km/h 9.7 km/h 89% 0 mm 0 W/m2
23:20 11.2 °C 9.4 °C 995.1 hPa ENE 8 km/h 8 km/h 89% 0 mm 0 W/m2
23:26 11.2 °C 9.3 °C 995.1 hPa East 8 km/h 14.5 km/h 88% 0 mm 0 W/m2
23:32 11.1 °C 9.4 °C 995.1 hPa ENE 8 km/h 8 km/h 89% 0 mm 0 W/m2
23:38 11.2 °C 9.3 °C 995.1 hPa ENE 8 km/h 11.3 km/h 88% 0 mm 0 W/m2
23:44 11.1 °C 9.2 °C 994.8 hPa ENE 8 km/h 12.9 km/h 88% 0 mm 0 W/m2
23:50 11.1 °C 9.4 °C 994.8 hPa ENE 8 km/h 8 km/h 89% 0 mm 0 W/m2
23:56 11.2 °C 9.4 °C 994.8 hPa ESE 6.4 km/h 16.1 km/h 89% 0 mm 0 W/m2
Country Meadow, Clay, NY, USA
Compliments of Weather Underground - 2 mb